Regional Weather Roundup
Issued by NWS

Home | Current Version | Previous Version | Text Only | Print | Product List | Glossary On
Versions: 1 2 3 4 5 6 7 8 9 10 11 12 13 14 15 16 17 18 19 20 21 22 23 24 25 26 27 28 29 30 31 32 33 34 35 36 37 38 39 40 41 42 43 44 45 46 47 48 49 50
000
ASUS43 KLMK 042102
RWRKY
KENTUCKY REGIONAL WEATHER ROUNDUP
NATIONAL WEATHER SERVICE LOUISVILLE KY
500 PM EDT MON MAY 04 2015

NOTE "FAIR" INDICATES FEW OR NO CLOUDS BELOW 12,000 FEET
WITH NO SIGNIFICANT WEATHER AND/OR OBSTRUCTIONS TO VISIBILITY.

KYZ001>023-026-027-061>063-070>075-042200-
WESTERN AND SOUTH CENTRAL KENTUCKY

CITY           SKY/WX    TMP DP  RH WIND       PRES   REMARKS
PADUCAH        MOSUNNY   84  55  36 S8G18     30.14F
HENDERSON      PTSUNNY   84  55  37 SW16      30.13F
OWENSBORO      PTSUNNY   82  59  45 SW10      30.15F
HOPKINSVILLE   PTSUNNY   80  56  44 S9G17     30.17F
BOWLING GREEN  PTSUNNY   82  55  39 W9        30.18F
GLASGOW        NOT AVBL
$$

KYZ024-025-028>034-038-045-046-053-042200-
NORTH CENTRAL KENTUCKY

CITY           SKY/WX    TMP DP  RH WIND       PRES   REMARKS
LOUISVILLE/SDF PTSUNNY   82  57  42 W14       30.15F
LOUISVILLE/LOU PTSUNNY   81  55  40 SW12      30.16S
FORT KNOX      MOSUNNY   80  55  42 SW10      30.15F
$$

KYZ035>037-039>044-047>052-055>060-089>105-042200-
NORTHEAST KENTUCKY

CITY           SKY/WX    TMP DP  RH WIND       PRES   REMARKS
LEXINGTON      SUNNY     81  55  40 SW10      30.19F
COVINGTON      CLOUDY    76  58  53 W6        30.16F
FRANKFORT      CLOUDY    80  55  42 SW12      30.16F
$$

KYZ054-064>069-076>088-106>120-042200-
SOUTHEAST KENTUCKY

CITY           SKY/WX    TMP DP  RH WIND       PRES   REMARKS
JACKSON        MOSUNNY   81  48  31 SW6       30.22F
LONDON         PTSUNNY   82  41  23 W8        30.21F
SOMERSET       NOT AVBL
MIDDLESBORO    MOSUNNY   79  50  36 S9        30.23F
MONTICELLO     CLEAR     81  51  35 SW12      30.25F
$$




USA.gov is the U.S. government's official web portal to all federal, state and local government web resources and services.